When you browse on this site, cookies collect data to enhance your experience and personalize the content and advertising you see.
Visit our Privacy Policy to learn more. By continuing to use the site, you agree to this use of cookies and data.
  • In Spain
  • List of Countries
  • For 7 days
  • Water Temperature
  • Satellite Maps
  • Weather Map
  • Weather Widgets
  • user-avatar
    Login

    Hourly Weather Bolshoe Chervonnoe

    Today, 19 July, Friday

    Time Temperature Precipitation Wind Pressure Humidity
    00:00 +13°C° 0.4 mm 4 mps 734 mmHg 97%
    01:00 +13°C° 0.4 mm 4 mps 734 mmHg 97%
    02:00 +13°C° 0.4 mm 5 mps 734 mmHg 97%
    03:00 +13°C° 0.3 mm 5 mps 734 mmHg 96%
    04:00 +13°C° 0.3 mm 5 mps 734 mmHg 96%
    05:00 +13°C° 0.3 mm 6 mps 735 mmHg 96%
    06:00 +13°C° 0.2 mm 6 mps 735 mmHg 95%
    07:00 +14°C° 0.2 mm 6 mps 735 mmHg 95%
    08:00 +14°C° 0.2 mm 5 mps 736 mmHg 94%
    09:00 +14°C° 0.2 mm 6 mps 736 mmHg 93%
    10:00 +15°C° 0.2 mm 6 mps 737 mmHg 91%
    11:00 +15°C° 0.2 mm 6 mps 737 mmHg 90%
    12:00 +15°C° 0.1 mm 6 mps 737 mmHg 88%
    13:00 +16°C° 0.1 mm 7 mps 737 mmHg 87%
    14:00 +16°C° 0.1 mm 7 mps 737 mmHg 85%
    15:00 +16°C° 0 mm 7 mps 738 mmHg 82%
    16:00 +17°C° 0 mm 7 mps 738 mmHg 79%
    17:00 +17°C° 0 mm 6 mps 738 mmHg 76%
    18:00 +16°C° 0 mm 6 mps 738 mmHg 78%
    19:00 +15°C° 0 mm 5 mps 739 mmHg 81%
    20:00 +14°C° 0 mm 4 mps 739 mmHg 83%
    21:00 +14°C° 0 mm 4 mps 739 mmHg 82%
    22:00 +14°C° 0 mm 4 mps 739 mmHg 81%
    23:00 +15°C° 0 mm 4 mps 740 mmHg 80%

    Tomorrow, 20 July, Saturday

    Time Temperature Precipitation Wind Pressure Humidity
    00:00 +14°C° 0 mm 4 mps 740 mmHg 83%
    01:00 +13°C° 0 mm 4 mps 740 mmHg 86%
    02:00 +12°C° 0 mm 4 mps 740 mmHg 90%
    03:00 +12°C° 0 mm 4 mps 740 mmHg 91%
    04:00 +12°C° 0 mm 4 mps 741 mmHg 92%
    05:00 +12°C° 0 mm 3 mps 741 mmHg 93%
    06:00 +13°C° 0 mm 4 mps 741 mmHg 89%
    07:00 +15°C° 0 mm 4 mps 741 mmHg 85%
    08:00 +17°C° 0 mm 4 mps 742 mmHg 82%
    09:00 +18°C° 0 mm 4 mps 742 mmHg 79%
    10:00 +19°C° 0 mm 5 mps 742 mmHg 76%
    11:00 +21°C° 0 mm 5 mps 743 mmHg 73%
    12:00 +21°C° 0.3 mm 5 mps 743 mmHg 73%
    13:00 +21°C° 0.3 mm 5 mps 742 mmHg 73%
    14:00 +22°C° 0.3 mm 5 mps 742 mmHg 74%
    15:00 +21°C° 0.3 mm 5 mps 743 mmHg 75%
    16:00 +21°C° 0.3 mm 4 mps 743 mmHg 76%
    17:00 +21°C° 0.3 mm 4 mps 743 mmHg 77%
    18:00 +20°C° 0 mm 3 mps 743 mmHg 79%
    19:00 +18°C° 0 mm 3 mps 743 mmHg 81%
    20:00 +16°C° 0 mm 3 mps 743 mmHg 83%
    21:00 +16°C° 0 mm 3 mps 743 mmHg 83%
    22:00 +15°C° 0 mm 2 mps 744 mmHg 83%
    23:00 +14°C° 0 mm 2 mps 744 mmHg 83%

    Day after tomorrow, 21 July, Sunday

    Time Temperature Precipitation Wind Pressure Humidity
    00:00 +14°C° 0 mm 2 mps 744 mmHg 84%
    01:00 +13°C° 0 mm 2 mps 744 mmHg 85%
    02:00 +13°C° 0 mm 2 mps 744 mmHg 86%
    03:00 +13°C° 0 mm 2 mps 744 mmHg 86%
    04:00 +13°C° 0 mm 2 mps 744 mmHg 87%
    05:00 +13°C° 0 mm 2 mps 744 mmHg 87%
    06:00 +15°C° 0 mm 2 mps 744 mmHg 83%
    07:00 +17°C° 0 mm 2 mps 744 mmHg 79%
    08:00 +19°C° 0 mm 2 mps 745 mmHg 74%
    09:00 +20°C° 0 mm 2 mps 745 mmHg 71%
    10:00 +21°C° 0 mm 2 mps 745 mmHg 68%
    11:00 +24°C° 0 mm 2 mps 745 mmHg 64%
    12:00 +24°C° 0 mm 2 mps 745 mmHg 63%
    13:00 +24°C° 0 mm 2 mps 744 mmHg 62%
    14:00 +25°C° 0 mm 3 mps 744 mmHg 60%
    15:00 +25°C° 0 mm 2 mps 744 mmHg 63%
    16:00 +25°C° 0 mm 2 mps 744 mmHg 66%
    17:00 +24°C° 0 mm 2 mps 744 mmHg 68%
    18:00 +23°C° 0 mm 1 mps 744 mmHg 73%
    19:00 +21°C° 0 mm 1 mps 744 mmHg 78%
    20:00 +17°C° 0 mm 0 mps 744 mmHg 83%
    21:00 +16°C° 0 mm 0 mps 744 mmHg 83%
    22:00 +16°C° 0 mm 0 mps 744 mmHg 83%
    23:00 +15°C° 0 mm 0 mps 744 mmHg 84%

    22 July, Monday

    Time Temperature Precipitation Wind Pressure Humidity
    00:00 +16°C° 0 mm 1 mps 744 mmHg 85%
    01:00 +15°C° 0 mm 1 mps 744 mmHg 86%
    02:00 +15°C° 0 mm 1 mps 743 mmHg 87%
    03:00 +15°C° 0 mm 1 mps 743 mmHg 88%
    04:00 +15°C° 0 mm 1 mps 743 mmHg 88%
    05:00 +16°C° 0 mm 2 mps 743 mmHg 88%
    06:00 +17°C° 0 mm 2 mps 743 mmHg 85%
    07:00 +18°C° 0 mm 2 mps 743 mmHg 83%
    08:00 +20°C° 0 mm 3 mps 742 mmHg 80%
    09:00 +21°C° 0.6 mm 3 mps 742 mmHg 79%
    10:00 +22°C° 0.6 mm 3 mps 742 mmHg 77%
    11:00 +24°C° 0.6 mm 3 mps 742 mmHg 76%
    12:00 +24°C° 1.3 mm 3 mps 742 mmHg 77%
    13:00 +24°C° 1.3 mm 3 mps 741 mmHg 78%
    14:00 +24°C° 1.3 mm 2 mps 741 mmHg 79%
    15:00 +21°C° 0.5 mm 2 mps 741 mmHg 84%
    16:00 +20°C° 0.5 mm 2 mps 741 mmHg 88%
    17:00 +19°C° 0.5 mm 3 mps 741 mmHg 92%
    18:00 +18°C° 0.6 mm 2 mps 740 mmHg 94%
    19:00 +17°C° 0.6 mm 2 mps 740 mmHg 95%
    20:00 +17°C° 0.6 mm 2 mps 740 mmHg 97%
    21:00 +17°C° 0.6 mm 2 mps 740 mmHg 97%
    22:00 +17°C° 0.6 mm 2 mps 740 mmHg 97%
    23:00 +17°C° 0.6 mm 2 mps 740 mmHg 98%

    23 July, Tuesday

    Time Temperature Precipitation Wind Pressure Humidity
    00:00 +17°C° 0.5 mm 2 mps 740 mmHg 98%
    01:00 +17°C° 0.5 mm 2 mps 740 mmHg 98%
    02:00 +17°C° 0.5 mm 2 mps 740 mmHg 98%
    03:00 +16°C° 1.3 mm 2 mps 740 mmHg 98%
    04:00 +16°C° 1.3 mm 3 mps 740 mmHg 98%
    05:00 +16°C° 1.3 mm 3 mps 740 mmHg 98%
    06:00 +15°C° 1.2 mm 4 mps 740 mmHg 98%
    07:00 +15°C° 1.2 mm 4 mps 740 mmHg 97%
    08:00 +14°C° 1.2 mm 5 mps 740 mmHg 97%
    09:00 +14°C° 0.6 mm 5 mps 740 mmHg 96%
    10:00 +14°C° 0.6 mm 5 mps 741 mmHg 96%
    11:00 +15°C° 0.6 mm 5 mps 741 mmHg 95%
    12:00 +15°C° 0.1 mm 5 mps 741 mmHg 95%
    13:00 +15°C° 0.1 mm 4 mps 741 mmHg 95%
    14:00 +15°C° 0.1 mm 4 mps 742 mmHg 95%
    15:00 +15°C° 0 mm 4 mps 742 mmHg 94%
    16:00 +17°C° 0 mm 4 mps 742 mmHg 93%
    17:00 +17°C° 0 mm 4 mps 742 mmHg 92%
    18:00 +17°C° 0.2 mm 4 mps 742 mmHg 91%
    19:00 +15°C° 0.2 mm 4 mps 742 mmHg 90%
    20:00 +15°C° 0.2 mm 4 mps 742 mmHg 88%
    21:00 +15°C° 0.2 mm 4 mps 742 mmHg 90%
    22:00 +15°C° 0.2 mm 4 mps 742 mmHg 91%
    23:00 +14°C° 0.2 mm 3 mps 742 mmHg 92%

    24 July, Wednesday

    Time Temperature Precipitation Wind Pressure Humidity
    00:00 +14°C° 0 mm 4 mps 742 mmHg 92%
    01:00 +13°C° 0 mm 4 mps 742 mmHg 92%
    02:00 +13°C° 0 mm 4 mps 742 mmHg 92%
    03:00 +13°C° 0 mm 4 mps 742 mmHg 92%
    04:00 +13°C° 0 mm 4 mps 742 mmHg 92%
    05:00 +12°C° 0 mm 4 mps 742 mmHg 93%
    06:00 +14°C° 0 mm 5 mps 742 mmHg 89%
    07:00 +15°C° 0 mm 5 mps 742 mmHg 85%
    08:00 +16°C° 0 mm 5 mps 742 mmHg 81%
    09:00 +17°C° 0 mm 6 mps 742 mmHg 75%
    10:00 +19°C° 0 mm 6 mps 742 mmHg 69%
    11:00 +20°C° 0 mm 6 mps 742 mmHg 63%
    12:00 +21°C° 0 mm 6 mps 742 mmHg 62%
    13:00 +21°C° 0 mm 6 mps 742 mmHg 61%
    14:00 +22°C° 0 mm 6 mps 742 mmHg 61%
    15:00 +22°C° 0 mm 5 mps 742 mmHg 65%
    16:00 +22°C° 0 mm 4 mps 742 mmHg 69%
    17:00 +21°C° 0 mm 3 mps 742 mmHg 74%
    18:00 +20°C° 0.1 mm 3 mps 742 mmHg 76%
    19:00 +18°C° 0.1 mm 3 mps 742 mmHg 79%
    20:00 +17°C° 0.1 mm 4 mps 742 mmHg 81%
    21:00 +15°C° 0 mm 4 mps 742 mmHg 82%
    22:00 +15°C° 0 mm 4 mps 741 mmHg 82%
    23:00 +14°C° 0 mm 4 mps 741 mmHg 83%
    Show more